Wind_Speed
67 63 62 63 58 57 54 51 45 38 33 26 21 19 16 17 21 21 22 27 15 28 31 30 32 37 30 34 37 38 37 28 25 24 24 19 17 21 22 19 20 20 15 18 21
74 72 68 64 60 58 56 52 52 46 40 35 22 18 22 23 25 25 27 26 19 28 34 26 24 34 30 31 37 34 37 32 28 25 21 22 20 19 20 19 18 18 21 20 16
79 75 72 69 66 62 59 56 52 49 44 39 31 25 30 29 29 30 34 32 25 20 31 28 21 29 25 29 31 34 33 28 26 21 21 17 20 20 20 17 17 17 19 18 18
82 78 77 75 72 70 64 63 58 50 46 43 35 36 33 34 35 29 30 31 27 17 22 20 21 27 23 24 26 30 30 23 28 21 19 19 19 22 19 17 17 18 23 26 28
89 86 84 82 78 75 69 66 62 60 57 48 46 41 40 37 39 31 31 32 26 21 16 15 19 19 21 23 17 24 27 22 23 22 22 13 14 15 14 18 20 23 27 34 35
87 87 88 85 81 79 74 71 68 65 60 57 51 45 42 40 40 39 37 40 32 26 20 17 19 17 17 13 14 15 26 23 19 18 20 14 10 10 10 14 18 23 19 12 6
83 88 86 85 81 81 78 73 72 70 66 60 57 52 48 44 46 45 39 40 39 31 25 22 19 18 15 13 10 14 22 21 17 12 17 9 9 7 3 5 8 7 2 5 8
73 81 87 87 87 86 82 80 74 72 69 66 61 53 49 47 47 42 43 43 42 35 30 23 24 19 16 14 13 7 19 20 18 10 15 9 9 5 7 6 4 3 5 7 7
68 68 72 80 86 86 84 83 76 76 71 65 62 60 53 51 52 48 45 40 38 33 30 28 27 24 19 18 13 11 17 20 13 7 5 4 5 5 6 4 4 7 6 8 8
75 68 67 66 70 75 77 85 78 76 74 71 66 61 57 57 58 56 50 44 43 38 34 32 30 31 26 15 13 16 19 20 9 8 5 1 2 1 4 5 8 11 9 7 7
70 73 66 63 62 65 68 70 75 73 76 71 69 65 62 58 60 55 51 43 42 39 37 38 36 34 30 17 23 20 18 19 12 11 10 8 5 3 3 7 12 9 11 9 7
65 69 71 69 59 55 57 60 62 66 67 72 66 67 62 62 61 57 56 48 46 42 42 38 39 37 33 28 24 19 18 21 17 15 12 11 8 7 7 10 12 12 9 11 14
66 64 68 70 74 62 51 54 59 60 61 62 62 62 62 61 61 57 54 52 52 47 41 39 42 42 36 33 27 22 23 23 22 20 18 18 15 11 11 11 15 17 16 17 17
71 66 64 67 67 70 67 49 51 56 59 59 58 59 59 58 59 58 54 54 52 52 48 48 44 47 44 37 34 29 27 26 25 25 24 23 21 19 21 19 19 21 22 21 22
75 73 67 64 66 66 64 64 47 50 54 55 54 57 54 54 57 55 56 57 55 53 48 47 46 49 47 44 38 28 30 30 33 31 29 27 30 28 28 26 27 27 29 29 29
81 77 75 68 65 63 61 63 60 47 49 50 53 54 50 49 53 56 56 56 55 53 53 53 51 52 51 48 40 37 31 36 37 36 37 34 36 34 38 37 37 37 40 41 43
89 82 78 77 70 66 61 59 59 50 47 48 51 50 47 45 47 53 57 58 59 58 59 56 54 51 53 51 43 38 37 39 41 40 40 37 43 42 39 41 42 44 46 47 46
89 87 81 79 76 71 68 60 56 53 51 49 47 48 46 42 46 54 59 63 62 63 62 56 51 51 51 54 52 42 42 35 45 46 43 43 47 50 45 44 45 49 52 54 56
96 92 90 85 80 76 71 64 54 53 55 54 47 43 45 44 44 47 51 58 62 62 61 56 51 50 50 50 50 48 41 38 40 37 47 49 50 56 53 50 50 41 44 49 49
103 98 93 93 85 83 76 66 58 56 57 55 53 48 45 45 45 43 41 49 56 61 63 59 52 54 53 50 51 51 51 43 39 38 36 48 53 47 48 52 47 43 46 48 50
109 107 99 97 95 87 81 69 64 61 60 57 54 52 50 48 46 45 42 42 46 51 54 54 58 58 55 49 51 52 53 51 47 39 37 35 37 53 58 49 46 47 52 54 56
109 109 107 104 102 94 80 75 71 65 61 59 58 56 55 52 49 49 47 44 43 47 51 53 59 60 61 54 48 50 51 53 54 51 41 38 48 51 48 46 52 52 53 60 62
109 108 110 111 104 98 85 80 77 69 63 63 60 58 55 53 52 51 50 48 48 48 50 53 55 56 60 61 56 57 47 52 58 58 56 58 55 59 58 58 54 54 58 60 61
104 107 108 112 106 101 91 86 81 73 67 65 61 59 58 56 56 54 52 51 52 51 50 49 49 52 53 56 59 60 55 55 56 55 60 58 65 61 63 58 59 63 66 66 71
93 99 103 105 102 103 99 88 83 78 70 66 63 60 58 56 55 54 53 51 50 51 51 52 49 49 56 58 62 62 64 58 57 59 56 58 60 68 68 69 71 72 73 74 75
90 97 102 102 102 107 102 92 87 82 74 67 65 64 62 60 56 52 51 50 49 50 50 51 48 48 48 53 58 61 62 64 60 60 60 61 63 64 67 65 69 72 72 75 81
88 95 101 103 104 106 102 92 86 84 79 72 71 65 62 60 56 53 50 51 46 45 45 48 46 46 46 45 49 53 60 58 59 63 62 63 67 69 65 68 72 72 72 72 70
Wind_Direction
252 251 255 257 253 253 259 265 270 269 277 282 283 268 284 288 298 311 323 329 326 333 344 354 2 10 20 13 17 19 17 12 7 360 3 8 351 340 313 338 339 309 306 311 313
245 250 252 253 257 259 264 267 271 274 276 281 272 282 280 288 292 299 315 319 314 323 331 343 356 359 10 11 12 17 18 15 10 6 6 7 1 341 319 327 330 312 301 309 325
245 245 247 251 250 253 256 260 266 268 272 279 271 274 284 289 284 297 303 309 303 319 320 324 338 351 4 10 7 7 13 18 14 4 1 2 1 345 345 329 327 324 316 328 325
244 245 247 249 252 252 252 254 257 257 264 269 267 274 283 283 286 292 301 304 296 297 311 316 331 340 359 3 4 359 9 9 16 15 6 6 358 350 342 322 311 312 315 314 310
246 244 247 250 249 249 251 251 255 256 260 259 261 268 267 278 274 276 291 298 293 288 291 294 314 335 348 352 357 355 358 1 7 15 24 21 5 350 335 308 297 294 306 309 302
243 247 249 249 248 248 249 250 251 253 254 257 259 261 268 268 271 274 278 290 289 279 274 284 306 315 327 346 341 344 347 7 356 13 24 28 27 8 342 310 301 318 322 322 61
242 243 246 247 250 250 250 250 250 249 252 254 259 258 264 266 265 273 275 282 289 278 266 275 283 288 312 323 340 323 341 357 344 355 18 43 50 50 38 330 343 356 31 87 100
241 243 243 245 248 248 249 250 251 250 252 251 253 251 256 255 264 269 272 273 280 276 265 263 274 275 287 304 306 288 322 342 349 336 17 27 48 74 118 104 86 199 174 156 142
239 239 242 246 246 246 247 251 251 249 249 250 251 252 253 249 251 260 266 275 274 278 257 256 270 270 277 294 291 293 292 325 336 329 339 47 32 111 93 99 145 178 194 181 176
239 238 236 240 244 246 246 249 250 249 250 249 252 249 250 250 254 260 265 272 274 271 262 256 258 266 280 260 281 307 301 307 287 292 232 280 11 95 105 161 185 214 196 173 190
238 240 238 235 238 242 244 245 246 249 247 247 251 249 250 249 251 255 264 268 261 262 261 261 259 259 269 254 276 293 305 285 289 251 269 227 212 199 182 200 211 202 212 213 224
240 239 240 241 234 236 238 240 244 248 249 248 249 248 248 250 249 254 259 259 260 259 264 263 256 255 262 263 262 278 286 269 289 268 260 230 248 212 213 229 218 225 239 246 237
239 239 239 239 242 240 235 237 239 242 245 245 247 247 244 244 248 251 253 255 257 256 254 261 257 254 252 260 253 267 279 273 288 264 244 238 233 237 229 234 237 233 239 242 247
240 239 238 239 238 240 240 233 236 237 239 242 243 246 246 249 249 247 248 249 249 252 255 257 256 250 248 252 255 264 270 266 250 266 240 243 245 240 246 242 244 247 252 257 262
239 239 236 238 237 234 237 237 233 236 237 239 240 241 243 245 246 248 244 242 247 249 250 254 253 251 245 248 253 251 259 250 249 256 256 257 244 248 254 251 257 257 263 268 267
233 237 238 235 239 235 232 235 235 232 233 232 232 236 239 240 241 239 240 242 241 240 244 250 250 249 243 243 251 251 251 250 246 251 251 261 250 257 265 265 265 266 269 271 274
234 232 234 237 236 238 232 230 230 229 229 229 232 236 239 240 243 241 238 235 233 234 239 244 243 242 241 242 245 254 251 259 248 250 253 258 261 260 261 267 270 273 275 278 281
236 233 229 232 235 236 237 231 226 225 229 227 228 232 232 238 238 237 235 232 232 233 234 237 238 240 238 241 240 241 253 255 259 262 254 257 262 268 266 265 271 279 283 287 291
235 233 231 229 231 234 235 234 225 223 228 228 226 225 228 231 235 238 239 239 237 237 237 235 239 238 238 241 242 244 245 255 264 276 274 265 262 268 272 273 276 283 291 299 300
234 233 230 229 227 231 232 232 228 222 225 226 227 224 226 230 233 236 238 239 239 238 239 239 238 243 238 243 247 246 247 246 251 260 267 272 276 278 287 289 281 284 288 291 294
235 230 231 230 228 227 228 229 227 223 225 223 225 224 221 225 228 232 238 241 239 238 240 241 242 242 241 245 248 249 249 248 249 250 254 266 286 284 274 281 284 286 288 292 294
236 232 229 231 230 226 225 224 227 225 223 223 223 224 223 225 229 232 235 238 240 237 235 237 242 242 249 243 249 248 252 254 254 252 254 259 278 282 280 283 277 275 284 288 287
234 231 229 230 230 226 222 222 225 225 222 223 221 223 224 225 230 234 236 237 240 241 243 238 239 243 244 251 244 246 251 255 253 254 256 255 256 266 275 278 280 281 283 284 287
232 230 228 229 225 226 222 218 222 224 222 224 222 223 224 225 229 233 235 238 241 244 245 246 247 241 245 244 245 250 251 255 255 257 258 261 263 272 271 274 278 280 283 287 289
230 227 227 227 223 224 223 218 220 223 222 222 223 223 223 224 227 231 233 238 241 243 246 248 249 245 244 245 247 251 255 256 259 259 259 263 267 272 277 278 277 278 282 286 288
221 221 220 221 219 221 219 216 217 219 221 222 223 222 223 224 226 229 232 235 239 243 247 247 249 250 250 247 250 256 259 258 261 265 266 269 272 278 279 280 280 280 281 285 288
216 218 216 217 216 218 214 212 213 216 219 219 222 223 224 224 225 227 231 234 236 243 249 253 252 255 256 257 255 256 256 263 265 268 271 272 273 279 283 281 282 285 285 287 290
Height
10833 10838 10844 10848 10853 10857 10860 10864 10868 10871 10875 10880 10883 10882 10882 10881 10881 10880 10880 10879 10878 10876 10876 10873 10870 10866 10862 10860 10854 10850 10844 10839 10833 10828 10827 10825 10822 10823 10823 10824 10823 10823 10823 10824 10823
10822 10829 10834 10840 10845 10850 10854 10857 10861 10864 10869 10875 10877 10878 10878 10878 10877 10878 10878 10877 10876 10875 10873 10872 10870 10866 10863 10859 10853 10849 10843 10838 10832 10830 10827 10825 10824 10824 10823 10823 10824 10824 10824 10822 10820
10811 10818 10823 10830 10836 10842 10847 10851 10854 10857 10862 10868 10873 10874 10873 10875 10874 10873 10874 10876 10874 10870 10871 10871 10869 10868 10864 10860 10856 10852 10849 10845 10838 10833 10828 10825 10824 10823 10823 10823 10822 10822 10821 10819 10818
10797 10805 10811 10818 10824 10832 10838 10843 10847 10850 10854 10860 10865 10867 10868 10870 10872 10870 10871 10871 10872 10870 10868 10868 10866 10864 10862 10860 10857 10854 10850 10847 10843 10835 10830 10824 10823 10822 10822 10822 10821 10820 10819 10818 10815
10782 10791 10798 10804 10812 10819 10827 10833 10838 10842 10845 10851 10857 10861 10863 10864 10866 10867 10868 10868 10868 10868 10866 10866 10865 10862 10860 10858 10856 10854 10850 10846 10842 10838 10832 10824 10824 10823 10822 10821 10820 10818 10816 10814 10812
10769 10776 10783 10789 10798 10806 10814 10822 10828 10832 10836 10842 10848 10854 10857 10858 10860 10862 10863 10864 10865 10864 10862 10863 10862 10860 10858 10856 10854 10852 10849 10846 10842 10837 10831 10826 10824 10822 10820 10819 10818 10816 10813 10812 10809
10754 10761 10768 10776 10783 10792 10800 10808 10816 10820 10827 10833 10838 10846 10848 10850 10852 10857 10858 10859 10860 10859 10859 10857 10857 10857 10855 10853 10852 10850 10848 10844 10841 10837 10832 10827 10825 10822 10820 10818 10816 10815 10813 10812 10810
10740 10746 10754 10761 10769 10775 10785 10793 10803 10809 10815 10823 10828 10836 10839 10843 10844 10850 10849 10853 10855 10855 10854 10853 10853 10852 10851 10850 10848 10848 10846 10842 10838 10834 10831 10828 10824 10823 10820 10818 10814 10814 10813 10812 10809
10728 10732 10738 10745 10754 10761 10769 10779 10788 10796 10803 10810 10817 10825 10830 10834 10837 10839 10842 10845 10848 10849 10849 10849 10849 10849 10847 10846 10845 10844 10842 10840 10836 10831 10828 10826 10824 10821 10818 10815 10815 10814 10813 10812 10809
10715 10721 10726 10733 10738 10747 10753 10765 10773 10782 10791 10798 10806 10813 10818 10823 10827 10828 10835 10837 10840 10842 10843 10842 10842 10844 10843 10840 10839 10839 10838 10835 10833 10830 10826 10823 10820 10818 10816 10814 10813 10814 10813 10811 10809
10701 10708 10715 10720 10727 10733 10742 10749 10758 10766 10775 10784 10792 10800 10806 10813 10817 10819 10825 10829 10829 10833 10835 10836 10837 10836 10838 10834 10833 10832 10833 10830 10829 10827 10824 10820 10817 10816 10813 10812 10811 10810 10810 10807 10806
10687 10694 10701 10710 10717 10722 10728 10735 10744 10752 10761 10770 10778 10787 10794 10801 10806 10810 10813 10819 10821 10822 10826 10829 10829 10829 10830 10830 10828 10827 10827 10827 10825 10823 10821 10818 10816 10813 10810 10809 10808 10808 10807 10807 10805
10676 10681 10688 10695 10704 10713 10717 10723 10730 10739 10748 10755 10765 10774 10781 10788 10793 10798 10803 10806 10810 10811 10817 10819 10821 10821 10824 10823 10822 10823 10822 10821 10819 10819 10817 10815 10813 10810 10808 10807 10807 10806 10804 10802 10800
10661 10670 10676 10682 10690 10699 10708 10714 10718 10727 10736 10743 10752 10760 10768 10774 10780 10785 10790 10796 10797 10798 10806 10809 10811 10811 10814 10814 10814 10816 10816 10817 10816 10814 10812 10810 10810 10807 10806 10805 10804 10803 10800 10797 10794
10645 10655 10663 10671 10677 10685 10694 10704 10710 10717 10728 10733 10739 10745 10752 10760 10765 10771 10777 10784 10786 10787 10794 10799 10802 10801 10805 10807 10807 10808 10810 10810 10810 10809 10808 10805 10804 10803 10802 10801 10799 10797 10794 10792 10790
10631 10640 10649 10658 10665 10672 10680 10690 10701 10711 10718 10723 10725 10732 10739 10745 10752 10759 10764 10771 10775 10778 10780 10785 10790 10793 10794 10797 10798 10800 10802 10803 10804 10803 10803 10800 10796 10798 10796 10796 10793 10791 10788 10785 10782
10614 10624 10634 10642 10652 10660 10667 10677 10691 10707 10706 10711 10714 10721 10728 10734 10741 10746 10752 10758 10761 10765 10769 10771 10778 10781 10785 10787 10789 10792 10795 10797 10796 10795 10794 10796 10790 10789 10790 10788 10786 10783 10780 10777 10774
10594 10608 10619 10625 10637 10646 10656 10666 10683 10694 10695 10699 10705 10711 10717 10724 10729 10734 10740 10745 10748 10752 10757 10761 10767 10771 10775 10778 10780 10782 10785 10788 10788 10788 10786 10787 10783 10779 10782 10781 10780 10776 10772 10769 10766
10573 10587 10601 10607 10620 10630 10642 10658 10673 10680 10683 10690 10697 10702 10707 10713 10719 10724 10729 10734 10739 10744 10749 10752 10757 10760 10766 10770 10773 10773 10776 10778 10782 10782 10781 10780 10776 10771 10770 10771 10770 10766 10762 10758 10753
10549 10564 10580 10589 10601 10613 10629 10649 10660 10666 10671 10679 10688 10693 10699 10705 10710 10715 10720 10724 10728 10735 10739 10743 10748 10752 10757 10761 10762 10765 10766 10768 10771 10773 10773 10773 10769 10766 10761 10758 10761 10758 10754 10750 10745
10520 10541 10558 10568 10581 10592 10616 10637 10644 10650 10658 10668 10678 10683 10689 10695 10701 10707 10711 10714 10720 10725 10730 10734 10738 10741 10746 10750 10752 10756 10756 10758 10761 10764 10763 10765 10762 10751 10751 10751 10750 10750 10743 10738 10734
10491 10516 10538 10545 10556 10577 10608 10621 10628 10638 10647 10657 10666 10672 10680 10687 10692 10698 10703 10707 10710 10714 10719 10723 10726 10730 10736 10737 10742 10744 10745 10747 10750 10752 10755 10753 10751 10739 10738 10740 10739 10736 10733 10728 10722
10465 10490 10507 10519 10538 10566 10590 10604 10612 10626 10636 10645 10654 10662 10670 10678 10683 10688 10694 10699 10702 10706 10710 10712 10716 10719 10723 10726 10728 10730 10732 10735 10738 10740 10742 10741 10738 10730 10730 10732 10732 10728 10722 10717 10711
10439 10460 10482 10493 10527 10548 10572 10588 10598 10612 10625 10633 10643 10651 10659 10667 10673 10679 10684 10689 10694 10697 10701 10704 10706 10709 10713 10717 10718 10721 10722 10725 10726 10728 10729 10730 10729 10721 10721 10723 10719 10714 10710 10704 10699
10415 10440 10461 10479 10511 10532 10550 10573 10585 10600 10613 10622 10633 10640 10648 10656 10662 10668 10674 10680 10685 10688 10691 10695 10697 10699 10702 10705 10708 10710 10712 10714 10716 10717 10721 10717 10721 10710 10710 10708 10704 10700 10696 10690 10683
10394 10413 10436 10461 10484 10501 10529 10554 10571 10585 10601 10612 10620 10624 10635 10644 10651 10660 10667 10671 10675 10678 10682 10685 10687 10690 10693 10697 10700 10702 10701 10702 10704 10707 10708 10707 10705 10702 10698 10694 10690 10685 10681 10676 10669
10371 10390 10414 10437 10457 10480 10517 10542 10560 10570 10585 10594 10601 10615 10625 10633 10644 10650 10657 10663 10666 10670 10672 10675 10678 10682 10683 10687 10691 10690 10690 10693 10694 10694 10695 10694 10692 10689 10682 10679 10676 10672 10667 10661 10654